Home > Weather > Apeldoorn > Past weeks

Flag for Netherlands Past Weather in Apeldoorn, Netherlands — Yesterday and Last 2 Weeks

Now
75 °F

Partly sunny.


Feels Like: 78 °F
Forecast: 55 / 71 °F
Wind: 6 mph from Northwest

Location: Deelen

Current Time: Jul 26, 2016 at 4:07:42 PM

Latest Report: Jul 26, 2016 at 3:25 PM


Visibility: N/A

Pressure: 30.12 "Hg

Humidity: 47%

Dew Point: 54 °F

Location of ApeldoornLocation

Past Weather in Apeldoorn — Graph

°F

Apeldoorn Temperature Yesterday

Maximum temperature yesterday: 73 °F (at 3:55 PM)
Minimum temperature yesterday: 57 °F (at 4:55 AM)
Average temperature yesterday: 66 °F

High & Low Weather Summary for the Past Weeks

 TemperatureHumidityPressure
High91 °F (Jul 20, 2:55 PM)100% (Jul 13, 12:55 AM)30.27 "Hg (Jul 13, 12:55 AM)
Low43 °F (Jul 14, 4:55 AM)32% (Jul 20, 3:55 PM)29.80 "Hg (Jul 11, 2:25 PM)
Average66 °F76%30.06 "Hg
* Reported Jul 11 2:25 PM — Jul 26 2:25 PM, Apeldoorn, Weather by CustomWeather, © 2016

Note: Actual official high and low records may vary slightly from our data, if they occured in-between our weather recording intervals... More about our weather records

Advertising

Apeldoorn Weather History for the Previous 24 Hours

Scroll right to see more
 ConditionsComfort  
Time TempWeatherWind HumidityBarometerVisibility
2:25 PM
Tue, Jul 26
73 °FMore clouds than sun.5 mph53%30.12 "HgN/A
1:55 PM72 °FOvercast.6 mph57%30.12 "HgN/A
1:25 PM72 °FBroken clouds.5 mph57%30.12 "HgN/A
12:55 PM73 °FPassing clouds.6 mph57%30.12 "HgN/A
12:25 PM72 °FPassing clouds.6 mph53%30.12 "HgN/A
11:55 AM72 °FPassing clouds.5 mph61%30.15 "HgN/A
11:25 AM70 °FPassing clouds.5 mph64%30.15 "HgN/A
10:55 AM70 °FPassing clouds.7 mph69%30.15 "HgN/A
10:25 AM68 °FPassing clouds.6 mph69%30.15 "HgN/A
9:55 AM68 °FPassing clouds.7 mph73%30.15 "HgN/A
9:25 AM66 °FMild.6 mph78%30.15 "HgN/A
8:55 AM64 °FMild.3 mph83%30.15 "HgN/A
8:25 AM61 °FPassing clouds.1 mph94%30.12 "HgN/A
7:55 AM59 °FFog.No wind94%30.12 "Hg6 mi
7:25 AM55 °FPassing clouds.No wind100%30.12 "HgN/A
6:55 AM52 °FCool.3 mph94%30.12 "HgN/A
6:25 AM50 °FPassing clouds.1 mph100%30.12 "HgN/A
5:55 AM52 °FPassing clouds.3 mph94%30.12 "HgN/A
5:25 AM52 °FCool.3 mph94%30.12 "HgN/A
4:55 AM52 °FCool.2 mph100%30.12 "HgN/A
4:25 AM52 °FPassing clouds.2 mph100%30.12 "HgN/A
3:55 AM52 °FPassing clouds.2 mph100%30.12 "HgN/A
3:25 AM54 °FCool.2 mph100%30.12 "HgN/A
2:55 AM55 °FCool.1 mph94%30.12 "HgN/A
2:25 AM55 °FPassing clouds.2 mph100%30.12 "HgN/A
1:55 AM57 °FPassing clouds.1 mph94%30.12 "HgN/A
1:25 AM57 °FPassing clouds.3 mph94%30.12 "HgN/A
12:55 AM59 °FPassing clouds.1 mph88%30.12 "HgN/A
12:25 AM61 °FOvercast.1 mph88%30.12 "HgN/A
11:55 PM
Mon, Jul 25
61 °FPassing clouds.2 mph88%30.12 "HgN/A
11:25 PM63 °FPassing clouds.3 mph83%30.12 "HgN/A
10:55 PM64 °FPassing clouds.3 mph78%30.12 "HgN/A
10:25 PM64 °FMostly cloudy.5 mph78%30.12 "Hg4 mi
9:55 PM66 °FBroken clouds.5 mph73%30.12 "HgN/A
9:25 PM66 °FMostly cloudy.3 mph73%30.09 "HgN/A
8:55 PM68 °FOvercast.5 mph73%30.09 "HgN/A
8:25 PM68 °FPartly sunny.7 mph73%30.09 "HgN/A
7:55 PM70 °FMore clouds than sun.7 mph69%30.09 "HgN/A
7:25 PM70 °FCloudy.6 mph73%30.09 "HgN/A
6:55 PM72 °FPassing clouds.8 mph69%30.07 "HgN/A
6:25 PM73 °FPartly sunny.7 mph69%30.07 "HgN/A
5:55 PM73 °FBroken clouds.8 mph74%30.07 "HgN/A
5:25 PM72 °FBroken clouds.7 mph78%30.07 "HgN/A
4:55 PM72 °FBroken clouds.10 mph78%30.07 "HgN/A
4:25 PM73 °FMostly cloudy.9 mph74%30.07 "HgN/A
Weather by CustomWeather, © 2016

See weather overviewHow to use our weather pages